Time,TemperatureF,DewpointF,PressureIn,WindDirection,WindDirectionDegrees,WindSpeedMPH,WindSpeedGustMPH,Humidity,HourlyPrecipIn,Conditions,Clouds,dailyrainin,SolarRadiationWatts/m^2,SoftwareType,DateUTC
2013-08-11 00:03:00,59.0,39.0,-100.00,West,278,7.0,14.0,47,0.00,,,0.00,0.000000,,2013-08-11 06:03:00,
2013-08-11 00:49:00,55.0,39.0,-100.00,West,275,4.0,9.0,55,0.00,,,0.00,0.000000,,2013-08-11 06:49:00,
2013-08-11 00:57:00,55.0,39.0,-100.00,West,275,4.0,9.0,55,0.00,,,0.00,0.000000,,2013-08-11 06:57:00,
2013-08-11 01:06:00,55.0,39.0,-100.00,West,275,4.0,9.0,55,0.00,,,0.00,0.000000,,2013-08-11 07:06:00,
2013-08-11 01:14:00,55.0,39.0,-100.00,West,275,4.0,9.0,55,0.00,,,0.00,0.000000,,2013-08-11 07:14:00,
2013-08-11 01:47:00,52.0,39.0,-100.00,WSW,258,4.0,7.0,61,0.00,,,0.00,0.000000,,2013-08-11 07:47:00,
2013-08-11 01:56:00,52.0,39.0,-100.00,WSW,258,4.0,7.0,61,0.00,,,0.00,0.000000,,2013-08-11 07:56:00,
2013-08-11 02:07:00,52.0,39.0,-100.00,WSW,258,4.0,7.0,61,0.00,,,0.00,0.000000,,2013-08-11 08:07:00,
2013-08-11 02:49:00,50.0,39.0,-100.00,West,263,5.0,7.0,66,0.00,,,-99.99,0.000000,,2013-08-11 08:49:00,
2013-08-11 02:59:00,50.0,39.0,-100.00,West,263,5.0,7.0,66,0.00,,,-99.99,0.000000,,2013-08-11 08:59:00,
2013-08-11 03:14:00,50.0,39.0,-100.00,West,263,5.0,7.0,66,0.00,,,-99.99,0.000000,,2013-08-11 09:14:00,
2013-08-11 03:44:00,48.0,40.0,-100.00,West,277,2.0,7.0,73,0.00,,,0.00,0.000000,,2013-08-11 09:44:00,
2013-08-11 04:01:00,48.0,40.0,-100.00,West,277,2.0,7.0,73,0.00,,,0.00,0.000000,,2013-08-11 10:01:00,
2013-08-11 04:13:00,48.0,40.0,-100.00,West,277,2.0,7.0,73,0.00,,,0.00,0.000000,,2013-08-11 10:13:00,
2013-08-11 04:47:00,48.0,39.0,-100.00,West,280,5.0,9.0,70,0.00,,,0.00,0.000000,,2013-08-11 10:47:00,
2013-08-11 04:57:00,48.0,39.0,-100.00,West,280,5.0,9.0,70,0.00,,,0.00,0.000000,,2013-08-11 10:57:00,
2013-08-11 05:06:00,48.0,39.0,-100.00,West,280,5.0,9.0,70,0.00,,,0.00,0.000000,,2013-08-11 11:06:00,
2013-08-11 05:12:00,48.0,39.0,-100.00,West,280,5.0,9.0,70,0.00,,,0.00,0.000000,,2013-08-11 11:12:00,
2013-08-11 05:49:00,48.0,38.0,-100.00,West,266,4.0,7.0,69,0.00,,,-99.99,0.000000,,2013-08-11 11:49:00,
2013-08-11 05:59:00,48.0,38.0,-100.00,West,266,4.0,7.0,69,0.00,,,-99.99,0.000000,,2013-08-11 11:59:00,
2013-08-11 06:05:00,48.0,38.0,-100.00,West,266,4.0,7.0,69,0.00,,,-99.99,0.000000,,2013-08-11 12:05:00,
2013-08-11 06:14:00,48.0,38.0,-100.00,West,266,4.0,7.0,69,0.00,,,-99.99,0.000000,,2013-08-11 12:14:00,
2013-08-11 06:15:00,47.0,39.0,-100.00,West,268,5.0,6.0,73,0.00,,,-99.99,0.000000,,2013-08-11 12:15:00,
2013-08-11 06:47:00,47.0,39.0,-100.00,West,268,5.0,6.0,73,0.00,,,-99.99,0.000000,,2013-08-11 12:47:00,
2013-08-11 06:56:00,47.0,39.0,-100.00,West,268,5.0,6.0,73,0.00,,,-99.99,0.000000,,2013-08-11 12:56:00,
2013-08-11 07:05:00,47.0,39.0,-100.00,West,268,5.0,6.0,73,0.00,,,-99.99,0.000000,,2013-08-11 13:05:00,
2013-08-11 07:15:00,48.0,40.0,-100.00,West,279,3.0,8.0,74,0.00,,,0.00,18.000000,,2013-08-11 13:15:00,
2013-08-11 07:48:00,48.0,40.0,-100.00,West,279,3.0,8.0,74,0.00,,,0.00,18.000000,,2013-08-11 13:48:00,
2013-08-11 07:58:00,48.0,40.0,-100.00,West,279,3.0,8.0,74,0.00,,,0.00,18.000000,,2013-08-11 13:58:00,
2013-08-11 08:57:00,59.0,44.0,-100.00,West,261,1.0,9.0,58,0.00,,,0.00,222.000000,,2013-08-11 14:57:00,
2013-08-11 09:05:00,59.0,44.0,-100.00,West,261,1.0,9.0,58,0.00,,,0.00,222.000000,,2013-08-11 15:05:00,
2013-08-11 09:14:00,59.0,44.0,-100.00,West,261,1.0,9.0,58,0.00,,,0.00,222.000000,,2013-08-11 15:14:00,
2013-08-11 09:59:00,68.0,42.0,-100.00,SSE,152,2.0,5.0,39,0.00,,,0.00,462.000000,,2013-08-11 15:59:00,
2013-08-11 10:06:00,68.0,42.0,-100.00,SSE,152,2.0,5.0,39,0.00,,,0.00,462.000000,,2013-08-11 16:06:00,
2013-08-11 10:12:00,68.0,42.0,-100.00,SSE,152,2.0,5.0,39,0.00,,,0.00,462.000000,,2013-08-11 16:12:00,
2013-08-11 11:07:00,69.0,45.0,-100.00,ESE,107,7.0,10.0,42,0.00,,,0.00,632.000000,,2013-08-11 17:07:00,
2013-08-11 11:12:00,69.0,45.0,-100.00,ESE,107,7.0,10.0,42,0.00,,,0.00,632.000000,,2013-08-11 17:12:00,
2013-08-11 11:15:00,69.0,44.0,-100.00,SE,129,7.0,14.0,41,0.00,,,0.00,814.000000,,2013-08-11 17:15:00,
2013-08-11 12:05:00,69.0,44.0,-100.00,SE,129,7.0,14.0,41,0.00,,,0.00,814.000000,,2013-08-11 18:05:00,
2013-08-11 12:49:00,72.0,43.0,-100.00,ESE,119,10.0,16.0,35,0.00,,,0.00,905.000000,,2013-08-11 18:49:00,
2013-08-11 12:56:00,72.0,43.0,-100.00,ESE,119,10.0,16.0,35,0.00,,,0.00,905.000000,,2013-08-11 18:56:00,
2013-08-11 13:05:00,72.0,43.0,-100.00,ESE,119,10.0,16.0,35,0.00,,,0.00,905.000000,,2013-08-11 19:05:00,
2013-08-11 13:14:00,72.0,43.0,-100.00,ESE,119,10.0,16.0,35,0.00,,,0.00,905.000000,,2013-08-11 19:14:00,
2013-08-11 13:15:00,69.0,39.0,-100.00,ESE,110,9.0,17.0,34,0.00,,,-99.99,679.000000,,2013-08-11 19:15:00,
2013-08-11 13:51:00,69.0,39.0,-100.00,ESE,110,9.0,17.0,34,0.00,,,-99.99,679.000000,,2013-08-11 19:51:00,
2013-08-11 14:00:00,69.0,39.0,-100.00,ESE,110,9.0,17.0,34,0.00,,,-99.99,679.000000,,2013-08-11 20:00:00,
2013-08-11 14:50:00,69.0,40.0,-100.00,East,80,6.0,13.0,35,0.00,,,0.00,227.000000,,2013-08-11 20:50:00,
2013-08-11 14:58:00,69.0,40.0,-100.00,East,80,6.0,13.0,35,0.00,,,0.00,227.000000,,2013-08-11 20:58:00,
2013-08-11 15:06:00,69.0,40.0,-100.00,East,80,6.0,13.0,35,0.00,,,0.00,227.000000,,2013-08-11 21:06:00,
2013-08-11 15:12:00,69.0,40.0,-100.00,East,80,6.0,13.0,35,0.00,,,0.00,227.000000,,2013-08-11 21:12:00,
2013-08-11 15:49:00,64.0,38.0,-100.00,ESE,108,6.0,26.0,38,0.00,,,0.00,75.000000,,2013-08-11 21:49:00,
2013-08-11 15:58:00,64.0,38.0,-100.00,ESE,108,6.0,26.0,38,0.00,,,0.00,75.000000,,2013-08-11 21:58:00,
2013-08-11 16:13:00,64.0,38.0,-100.00,ESE,108,6.0,26.0,38,0.00,,,0.00,75.000000,,2013-08-11 22:13:00,
2013-08-11 16:15:00,69.0,39.0,-100.00,NW,304,3.0,18.0,33,0.00,,,0.00,279.000000,,2013-08-11 22:15:00,
2013-08-11 16:47:00,69.0,39.0,-100.00,NW,304,3.0,18.0,33,0.00,,,0.00,279.000000,,2013-08-11 22:47:00,
2013-08-11 17:03:00,69.0,39.0,-100.00,NW,304,3.0,18.0,33,0.00,,,0.00,279.000000,,2013-08-11 23:03:00,
2013-08-11 17:15:00,72.0,37.0,-100.00,WSW,255,6.0,13.0,28,0.00,,,0.00,630.000000,,2013-08-11 23:15:00,
2013-08-11 17:57:00,72.0,37.0,-100.00,WSW,255,6.0,13.0,28,0.00,,,0.00,630.000000,,2013-08-11 23:57:00,
2013-08-11 18:04:00,72.0,37.0,-100.00,WSW,255,6.0,13.0,28,0.00,,,0.00,630.000000,,2013-08-12 00:04:00,
2013-08-11 18:52:00,67.0,43.0,-100.00,North,359,2.0,9.0,41,0.00,,,0.00,162.000000,,2013-08-12 00:52:00,
2013-08-11 18:58:00,67.0,43.0,-100.00,North,359,2.0,9.0,41,0.00,,,0.00,162.000000,,2013-08-12 00:58:00,
2013-08-11 19:05:00,67.0,43.0,-100.00,North,359,2.0,9.0,41,0.00,,,0.00,162.000000,,2013-08-12 01:05:00,
2013-08-11 19:13:00,67.0,43.0,-100.00,North,359,2.0,9.0,41,0.00,,,0.00,162.000000,,2013-08-12 01:13:00,
2013-08-11 19:48:00,66.0,45.0,-100.00,WNW,285,3.0,5.0,46,0.00,,,0.00,90.000000,,2013-08-12 01:48:00,
2013-08-11 19:55:00,66.0,45.0,-100.00,WNW,285,3.0,5.0,46,0.00,,,0.00,90.000000,,2013-08-12 01:55:00,
2013-08-11 20:06:00,66.0,45.0,-100.00,WNW,285,3.0,5.0,46,0.00,,,0.00,90.000000,,2013-08-12 02:06:00,
2013-08-11 20:13:00,66.0,45.0,-100.00,WNW,285,3.0,5.0,46,0.00,,,0.00,90.000000,,2013-08-12 02:13:00,
2013-08-11 20:49:00,62.0,40.0,-100.00,WNW,285,4.0,7.0,45,0.00,,,0.00,30.000000,,2013-08-12 02:49:00,
2013-08-11 21:05:00,62.0,40.0,-100.00,WNW,285,4.0,7.0,45,0.00,,,0.00,30.000000,,2013-08-12 03:05:00,
2013-08-11 21:14:00,62.0,40.0,-100.00,WNW,285,4.0,7.0,45,0.00,,,0.00,30.000000,,2013-08-12 03:14:00,
2013-08-11 21:48:00,60.0,39.0,-100.00,West,263,4.0,8.0,46,0.00,,,0.00,2.000000,,2013-08-12 03:48:00,
2013-08-11 22:00:00,60.0,39.0,-100.00,West,263,4.0,8.0,46,0.00,,,0.00,2.000000,,2013-08-12 04:00:00,
2013-08-11 22:02:00,60.0,39.0,-100.00,West,263,4.0,8.0,46,0.00,,,0.00,2.000000,,2013-08-12 04:02:00,
2013-08-11 22:12:00,60.0,39.0,-100.00,West,263,4.0,8.0,46,0.00,,,0.00,2.000000,,2013-08-12 04:12:00,
2013-08-11 22:43:00,57.0,37.0,-100.00,West,272,5.0,7.0,47,0.00,,,0.00,0.000000,,2013-08-12 04:43:00,
2013-08-11 22:52:00,57.0,37.0,-100.00,West,272,5.0,7.0,47,0.00,,,0.00,0.000000,,2013-08-12 04:52:00,
2013-08-11 23:02:00,57.0,37.0,-100.00,West,272,5.0,7.0,47,0.00,,,0.00,0.000000,,2013-08-12 05:02:00,
2013-08-11 23:11:00,57.0,37.0,-100.00,West,272,5.0,7.0,47,0.00,,,0.00,0.000000,,2013-08-12 05:11:00,
2013-08-11 23:43:00,55.0,39.0,-100.00,WNW,282,5.0,8.0,55,0.00,,,0.00,0.000000,,2013-08-12 05:43:00,
2013-08-11 23:52:00,55.0,39.0,-100.00,WNW,282,5.0,8.0,55,0.00,,,0.00,0.000000,,2013-08-12 05:52:00,